Atlanta, GA

3:00 AM EST on December 10, 2019 (GMT -0500)
The Hartsfield Atlanta International

Weather History for KATL - October, 2019

Change the Weather History Date:

Saturday, October 26, 2019

  Actual Average Record
Temperature  
Mean Temperature 71 °F 60 °F  
Max Temperature 75 °F 70 °F 85 °F (1940)
Min Temperature 66 °F 51 °F 29 °F (1968)
Degree Days  
Heating Degree Days 0 6  
Month to date heating degree days 42 85  
Since 1 July heating degree days 42 96  
Cooling Degree Days 6 1  
Month to date cooling degree days 161 62  
Year to date cooling degree days 2638 1867  
Growing Degree Days 21 (Base 50)    
Moisture  
Dew Point 66 °F    
Average Humidity 85    
Maximum Humidity 93    
Minimum Humidity 71    
Precipitation  
Precipitation 0.22 in 0.10 in 1.59 in (1997)
Month to date precipitation 2.62 2.92  
Year to date precipitation 34.95 41.22  
Sea Level Pressure  
Sea Level Pressure 29.90 in    
Wind  
Wind Speed 10 mph ()    
Max Wind Speed 18 mph    
Max Gust Speed 26 mph    
Visibility 8.2 miles    
Events Rain    
T = Trace of Precipitation, MM = Missing Value Source: Averaged Metar Reports

Daily Weather History Graph

Daily Weather History Graph

Search for Another Location

Airport or City:

Astronomy

Oct. 26, 2019 Rise Set
Actual Time 7:51 AM EDT 6:51 PM EDT
Civil Twilight 7:25 AM EDT 7:17 PM EDT
Nautical Twilight 6:56 AM EDT 7:46 PM EDT
Astronomical Twilight 6:27 AM EDT 8:15 PM EDT
Moon 5:55 AM EDT (10/26) 6:19 PM EDT (10/26)
Length of Visible Light 11h 51m
Length of Day
11h 00m
Waning Crescent, 3% of the Moon is Illuminated
Oct 26
Waning Crescent
Oct 27
New
Nov 4
First Quarter
Nov 12
Full
Nov 19
Last Quarter

Hourly Weather History & Observations

Time (EDT) Temp. Dew Point Humidity Pressure Visibility Wind Dir Wind Speed Gust Speed Precip Events Conditions
12:52 AM 68.0 °F 66.0 °F 93% 30.06 in 6.0 mi ESE 9.2 mph - 0.10 in Rain Light Rain
2:52 AM 68.0 °F 64.9 °F 90% 30.04 in 7.0 mi ESE 9.2 mph - N/A   Overcast
3:52 AM 68.0 °F 64.0 °F 87% 30.02 in 7.0 mi SE 6.9 mph - N/A   Overcast
4:52 AM 66.9 °F 64.0 °F 90% 30.00 in 7.0 mi ESE 11.5 mph 18.4 mph N/A   Overcast
5:52 AM 66.9 °F 63.0 °F 87% 29.99 in 10.0 mi ESE 12.7 mph - N/A   Overcast
6:52 AM 66.9 °F 63.0 °F 87% 29.99 in 10.0 mi ESE 10.4 mph - N/A   Overcast
7:52 AM 66.9 °F 63.0 °F 87% 29.99 in 10.0 mi ESE 9.2 mph - N/A   Overcast
8:52 AM 66.9 °F 64.0 °F 90% 29.96 in 10.0 mi SE 10.4 mph - N/A   Overcast
9:52 AM 68.0 °F 64.0 °F 87% 29.99 in 10.0 mi SE 13.8 mph 23.0 mph N/A   Overcast
10:52 AM 69.1 °F 64.0 °F 84% 29.98 in 10.0 mi SE 12.7 mph 20.7 mph N/A   Overcast
11:03 AM 70.0 °F 64.0 °F 81% 30.00 in 10.0 mi SE 13.8 mph 20.7 mph N/A   Overcast
11:52 AM 71.1 °F 64.0 °F 78% 29.95 in 10.0 mi SE 12.7 mph 25.3 mph N/A   Overcast
12:52 PM 70.0 °F 64.9 °F 84% 29.94 in 10.0 mi SE 13.8 mph 19.6 mph 0.00 in   Overcast
1:52 PM 71.1 °F 64.9 °F 81% 29.89 in 10.0 mi SE 9.2 mph - N/A   Overcast
2:24 PM 73.0 °F 66.0 °F 79% 29.89 in 10.0 mi SE 10.4 mph 20.7 mph N/A   Overcast
2:52 PM 73.9 °F 66.0 °F 76% 29.86 in 10.0 mi SE 10.4 mph 21.9 mph N/A   Mostly Cloudy
3:52 PM 75.0 °F 66.0 °F 73% 29.83 in 10.0 mi SE 17.3 mph 25.3 mph N/A   Mostly Cloudy
4:33 PM 75.9 °F 66.0 °F 71% 29.84 in 10.0 mi SE 12.7 mph 19.6 mph N/A   Mostly Cloudy
4:52 PM 75.9 °F 66.0 °F 71% 29.82 in 10.0 mi SE 10.4 mph 19.6 mph N/A   Overcast
5:20 PM 73.9 °F 66.9 °F 79% 29.84 in 4.0 mi SE 12.7 mph 19.6 mph 0.01 in Rain Light Rain
5:52 PM 73.0 °F 68.0 °F 84% 29.82 in 3.0 mi SE 12.7 mph 19.6 mph 0.04 in Rain Rain
6:52 PM 72.0 °F 69.1 °F 91% 29.82 in 10.0 mi SE 8.1 mph - 0.01 in Rain Light Rain
7:20 PM 72.0 °F 69.1 °F 91% 29.83 in 8.0 mi ESE 9.2 mph - 0.00 in   Overcast
7:52 PM 72.0 °F 69.1 °F 91% 29.81 in 9.0 mi ESE 9.2 mph - 0.00 in   Overcast
8:52 PM 72.0 °F 69.1 °F 91% 29.81 in 8.0 mi ESE 10.4 mph - N/A   Overcast
9:52 PM 72.0 °F 69.1 °F 91% 29.80 in 8.0 mi SE 9.2 mph - N/A   Overcast
10:18 PM 72.0 °F 69.1 °F 91% 29.82 in 8.0 mi SSE 9.2 mph - N/A   Overcast
10:52 PM 73.0 °F 69.1 °F 87% 29.81 in 9.0 mi SSE 11.5 mph - N/A   Overcast
11:22 PM 73.0 °F 69.1 °F 87% 29.82 in 2.0 mi South 13.8 mph 23.0 mph 0.02 in Rain Heavy Rain
11:32 PM 73.0 °F 69.1 °F 87% 29.82 in 4.0 mi SSE 10.4 mph - 0.06 in Rain Light Rain
11:43 PM 73.0 °F 69.1 °F 87% 29.82 in 5.0 mi SSE 12.7 mph 18.4 mph 0.07 in Rain Light Rain
11:52 PM 73.0 °F 69.1 °F 87% 29.80 in 7.0 mi South 11.5 mph - 0.07 in Rain Light Rain